User: anonymous   Login
Location: Unspecified
(0.0000°N, 0.0000°E)
Time: 10:29:30
(UTC+00:00)
Language:

SES 6 - Orbit

View from above orbital plane
View from above orbital plane
View from above satellite
View from above satellite

Ground track
Ground track

The orbit data is extracted from the following two-line orbital elements,

1 39172U 13026A   17320.95628241 -.00000266  00000-0  00000+0 0  9998
2 39172   0.0285 320.1003 0002034 274.1629 125.7428  1.00270768 16308
Epoch (UTC): 16 November 2017 22:57:02
Eccentricity: 0.0002034
inclination: 0.0285°
perigee height: 35778 km
apogee height: 35795 km
right ascension of ascending node: 320.1003°
argument of perigee: 274.1629°
revolutions per day: 1.00270768
mean anomaly at epoch: 125.7428°
orbit number at epoch: 1630

The dashed part of the orbit path shows where the satellite is in the earth's shadow,  

DLR